Location: Delia
(51.6321°N, 112.3740°W)
Time: 20:13:36
(UTC+00:00)

Envisat - Pass Details

Date: 09 December 2021
Orbit: 764 x 766 km, 98.2° (Epoch: 26 January)

Event Time Altitude Azimuth Distance (km) Brightness Sun altitude
Rises 14:03:56 0° 6° (N) 3,248 6.1 -11.6°
Reaches altitude 10° 14:06:36 10° 354° (N) 2,317 5.2 -11.2°
Maximum altitude 14:10:38 24° 301° (WNW) 1,545 4.0 -10.6°
Drops below altitude 10° 14:14:39 10° 249° (WSW) 2,304 5.1 -10.0°
Sets 14:17:19 0° 236° (SW) 3,226 5.9 -9.7°
